This is the latest recevied weather packets stored in our database for station/object MIDVIL-WX. If no packets are shown the sender has not sent any weather packets the latest 10 day(s).
| Time | Temp. | Humidity | Pressure | Rain* | Wind** | Luminosity | Snow |
|---|---|---|---|---|---|---|---|
| 1777993261 | 10.56° C | 43% | 980.5 hPa | 0 mm | - | - | - |
| 1777992328 | 10.56° C | 58% | 980.6 hPa | 0 mm | - | - | - |
| 1777991447 | 10.56° C | 48% | 980.5 hPa | 0 mm | - | - | - |
| 1777990528 | 10.56° C | 48% | 980.4 hPa | 0 mm | - | - | - |
| 1777989661 | 10.56° C | 48% | 980.4 hPa | 0 mm | - | - | - |
| 1777988728 | 10.56° C | 59% | 980.4 hPa | 0 mm | - | - | - |
| 1777987847 | 10.56° C | 59% | 980.4 hPa | 0 mm | - | - | - |
| 1777986928 | 10.56° C | 59% | 980.4 hPa | 0 mm | - | - | - |
| 1777986057 | 10.56° C | 59% | 980.5 hPa | 0 mm | - | - | - |
| 1777985127 | 11.11° C | 72% | 979.7 hPa | 0 mm | - | - | - |
| 1777984247 | 10.56° C | 71% | 978 hPa | 0 mm | - | - | - |
| 1777983327 | 10° C | 71% | 978 hPa | 0 mm | - | - | - |
| 1777982464 | 9.44° C | 71% | 978 hPa | 0 mm | - | - | - |
| 1777981528 | 9.44° C | 72% | 978.1 hPa | 0 mm | - | - | - |
| 1777980645 | 9.44° C | 67% | 976.6 hPa | 0 mm | - | - | - |
| 1777979727 | 10° C | 67% | 976.6 hPa | 0 mm | - | - | - |
| 1777978860 | 10° C | 67% | 976.6 hPa | 0 mm | - | - | - |
| 1777977928 | 10° C | 58% | 975.1 hPa | 0 mm | - | - | - |
| 1777977046 | 10° C | 58% | 975 hPa | 0 mm | - | - | - |
| 1777976127 | 10° C | 58% | 975 hPa | 0 mm | - | - | - |
| 1777975259 | 10° C | 58% | 975 hPa | 0 mm | - | - | - |
| 1777974327 | 10.56° C | 64% | 975.3 hPa | 0 mm | - | - | - |
| 1777973450 | 11.11° C | 67% | 975 hPa | 0 mm | - | - | - |
| 1777972527 | 10.56° C | 67% | 975 hPa | 0 mm | - | - | - |
| 1777971662 | 10.56° C | 67% | 975 hPa | 0 mm | - | - | - |
* Rain latest hour (hover to see other rain measurements)
** Current wind speed in m/s (hover to see current wind gust speed)